Location: *
(48.7358°N, 0.3111°E)
Time: 21:43:35
(UTC+00:00)

Nadezhda 3 Rocket - Pass Details

Date: 22 October 2019
Orbit: 957 x 999 km, 82.9° (Epoch: 18 November)

Event Time Altitude Azimuth Distance (km) Brightness Sun altitude
Rises 04:06:36 0° 351° (N) 3,735 7.1 -24.1°
Reaches altitude 10° 04:09:09 10° 353° (N) 2,780 6.4 -23.7°
Maximum altitude 04:15:33 79° 80° (E) 1,019 4.1 -22.6°
Drops below altitude 10° 04:21:52 10° 168° (SSE) 2,743 6.4 -21.6°
Sets 04:24:22 0° 169° (S) 3,682 7.1 -21.2°
